Location: Misciano
(43.5000°N, 11.9500°E)
Time: 04:47:27
(UTC+00:00)

COSMOS 2406 - Pass Details

Date: 13 August 2020
Orbit: 845 x 862 km, 71.0° (Epoch: 19 September)

Event Time Altitude Azimuth Distance (km) Brightness Sun altitude
Rises 18:48:11 0° 210° (SSW) 3,423 6.4 -5.8°
Reaches altitude 10° 18:50:39 10° 213° (SSW) 2,488 5.7 -6.2°
Maximum altitude 18:56:21 69° 297° (WNW) 915 3.7 -7.2°
Drops below altitude 10° 19:02:04 10° 21° (NNE) 2,494 5.8 -8.1°
Sets 19:04:33 0° 24° (NNE) 3,431 6.4 -8.5°
